Location: Newark
(13.5236°S, 71.9791°W)
Time: 21:01:25
(UTC+00:00)

OTV 5 (USA 277) - Pass Details

Date: 24 July 2019
Orbit: 305 x 329 km, 54.5° (Epoch: 20 August)

Event Time Altitude Azimuth Distance (km) Brightness Sun altitude
Exits shadow 09:23:24 14° 92° (E) 1,011 ? -25.7°
Drops below altitude 10° 09:24:06 10° 80° (E) 1,199 ? -25.5°
Sets 09:26:23 0° 59° (ENE) 2,014 ? -25.0°
